Home   Weather   Brampton   Past weeks
Flag for Canada

Past Weather in Brampton, Ontario, Canada — Yesterday and Last 2 Weeks

Now
39 °F

Mostly cloudy.


Feels Like: 32 °F
Forecast: 42 / 35 °F
Wind: 12 mph from East

Location: Toronto Pearson International Airport

Current Time: Mar 28, 2020 at 8:50:21 am

Latest Report: Mar 28, 2020 at 8:00 am


Visibility: 15 mi

Pressure: 29.98 "Hg

Humidity: 75%

Dew Point: 32 °F

Location of BramptonLocation

Past Weather in Brampton — Graph

°F

Brampton Temperature Yesterday

Maximum temperature yesterday: 46 °F (at 2:00 pm)
Minimum temperature yesterday: 36 °F (at 2:00 am)
Average temperature yesterday: 39 °F

High & Low Weather Summary for the Past Weeks

 TemperatureHumidityPressure
High64 °F (Mar 20, 10:00 am)100% (Mar 13, 7:00 am)30.72 "Hg (Mar 13, 7:00 am)
Low18 °F (Mar 21, 7:00 am)22% (Mar 15, 3:00 pm)29.52 "Hg (Mar 13, 7:00 am)
Average37 °F70%30.20 "Hg
* Reported Mar 13 7:00 am — Mar 28 7:00 am, Brampton. Weather by CustomWeather, © 2020

Note: Actual official high and low records may vary slightly from our data, if they occured in-between our weather recording intervals... More about our weather records

Brampton Weather History for the Previous 24 Hours

Scroll right to see more
 ConditionsComfort  
Time TempWeatherWind HumidityBarometerVisibility
7:00 am
Sat, Mar 28
39 °FMostly cloudy.16 mph75%29.95 "Hg15 mi
6:00 am39 °FOvercast.20 mph75%29.95 "Hg15 mi
5:00 am39 °FOvercast.15 mph75%29.96 "Hg15 mi
4:00 am37 °FOvercast.14 mph81%30.00 "Hg15 mi
3:00 am37 °FPassing clouds.14 mph81%30.02 "Hg15 mi
2:00 am37 °FPassing clouds.13 mph75%30.03 "Hg15 mi
1:00 am37 °FPassing clouds.9 mph81%30.06 "Hg15 mi
12:00 am39 °FPassing clouds.9 mph70%30.06 "Hg15 mi
11:00 pm
Fri, Mar 27
39 °FPassing clouds.12 mph75%30.08 "Hg15 mi
10:00 pm41 °FPassing clouds.5 mph70%30.07 "Hg15 mi
9:00 pm41 °FPassing clouds.3 mph70%30.06 "Hg15 mi
8:00 pm41 °FPassing clouds.3 mph70%30.05 "Hg15 mi
7:00 pm43 °FPassing clouds.14 mph66%30.04 "Hg15 mi
6:00 pm45 °FPassing clouds.10 mph66%30.03 "Hg15 mi
5:00 pm46 °FPassing clouds.9 mph62%30.01 "Hg15 mi
4:00 pm46 °FPassing clouds.8 mph62%30.00 "Hg15 mi
3:00 pm45 °FPassing clouds.13 mph66%30.02 "Hg15 mi
2:00 pm46 °FPassing clouds.8 mph66%30.03 "Hg15 mi
1:00 pm43 °FPassing clouds.2 mph71%30.03 "Hg15 mi
12:00 pm41 °FPartly sunny.7 mph76%30.04 "Hg15 mi
11:00 am37 °FOvercast.9 mph81%30.04 "Hg15 mi
10:00 am37 °FOvercast.9 mph81%30.05 "Hg15 mi
9:00 am36 °FOvercast.8 mph87%30.04 "Hg15 mi
8:00 am36 °FOvercast.6 mph87%30.00 "Hg15 mi
Weather by CustomWeather, © 2020

See weather overview

Advertising